TimeCDT,TemperatureF,Dew PointF,Humidity,Sea Level PressureIn,VisibilityMPH,Wind Direction,Wind SpeedMPH,Gust SpeedMPH,PrecipitationIn,Events,Conditions,WindDirDegrees,DateUTC
12:53 AM,73.9,66.0,76,29.80,10.0,West,6.9,-,N/A,,Mostly Cloudy,260,2013-08-07 05:53:00
1:53 AM,69.1,64.9,87,29.81,10.0,WNW,6.9,-,N/A,,Partly Cloudy,300,2013-08-07 06:53:00
2:53 AM,66.0,63.0,90,29.81,10.0,West,6.9,-,N/A,,Clear,280,2013-08-07 07:53:00
3:53 AM,66.0,62.1,87,29.81,10.0,NW,9.2,-,N/A,,Clear,320,2013-08-07 08:53:00
4:53 AM,63.0,57.9,84,29.82,10.0,NNW,8.1,-,N/A,,Clear,330,2013-08-07 09:53:00
5:53 AM,61.0,57.9,90,29.83,10.0,NW,9.2,-,N/A,,Clear,320,2013-08-07 10:53:00
6:53 AM,61.0,59.0,93,29.86,10.0,NNW,10.4,-,N/A,,Scattered Clouds,330,2013-08-07 11:53:00
7:05 AM,60.8,59.0,94,29.89,9.0,NNW,12.7,-,N/A,,Mostly Cloudy,330,2013-08-07 12:05:00
7:26 AM,62.6,60.8,94,29.91,7.0,NNW,11.5,-,N/A,,Overcast,340,2013-08-07 12:26:00
7:53 AM,62.1,60.1,93,29.89,7.0,NNW,11.5,-,N/A,,Overcast,330,2013-08-07 12:53:00
8:16 AM,62.6,60.8,94,29.93,9.0,NNW,10.4,-,N/A,,Overcast,330,2013-08-07 13:16:00
8:53 AM,63.0,59.0,87,29.92,10.0,NNW,10.4,-,N/A,,Overcast,330,2013-08-07 13:53:00
9:53 AM,64.0,60.1,87,29.94,10.0,NNW,15.0,-,N/A,,Overcast,340,2013-08-07 14:53:00
10:26 AM,66.2,60.8,83,29.98,10.0,NNW,11.5,-,N/A,,Overcast,340,2013-08-07 15:26:00
10:53 AM,66.9,60.1,79,29.97,10.0,NNW,11.5,-,N/A,,Overcast,330,2013-08-07 15:53:00
11:53 AM,68.0,60.1,76,29.98,10.0,NNW,12.7,-,N/A,,Overcast,330,2013-08-07 16:53:00
12:53 PM,71.1,59.0,66,29.97,10.0,NNW,11.5,-,N/A,,Mostly Cloudy,340,2013-08-07 17:53:00
1:37 PM,73.4,59.0,61,30.00,10.0,North,13.8,20.7,N/A,,Partly Cloudy,350,2013-08-07 18:37:00
1:53 PM,73.0,59.0,61,29.96,10.0,NW,12.7,-,N/A,,Partly Cloudy,320,2013-08-07 18:53:00
2:53 PM,73.9,57.9,57,29.96,10.0,NNW,12.7,-,N/A,,Clear,340,2013-08-07 19:53:00
3:53 PM,75.0,57.9,55,29.95,10.0,North,11.5,-,N/A,,Clear,350,2013-08-07 20:53:00
4:53 PM,75.0,57.9,55,29.96,10.0,North,12.7,-,N/A,,Clear,350,2013-08-07 21:53:00
5:53 PM,73.9,57.0,55,29.96,10.0,North,10.4,-,N/A,,Clear,350,2013-08-07 22:53:00
6:53 PM,71.1,55.9,59,29.97,10.0,North,9.2,-,N/A,,Clear,360,2013-08-07 23:53:00
7:53 PM,66.9,57.0,70,29.98,10.0,NNE,3.5,-,N/A,,Clear,20,2013-08-08 00:53:00
8:53 PM,63.0,55.0,75,30.01,10.0,NNW,5.8,-,N/A,,Clear,340,2013-08-08 01:53:00
9:53 PM,60.1,55.0,83,30.03,10.0,NNW,4.6,-,N/A,,Clear,340,2013-08-08 02:53:00
10:53 PM,59.0,54.0,83,30.04,10.0,NNW,5.8,-,N/A,,Clear,330,2013-08-08 03:53:00
11:53 PM,57.0,54.0,89,30.04,10.0,North,4.6,-,N/A,,Clear,350,2013-08-08 04:53:00